Starlink 5316

operational
NORAD ID: 55305 Int'l Des: 2023-010 Owner: SPXS Country: US Constellation: starlink
LEOCIRCULAR

About Starlink 5316

Description loading...

Live Position

Loading 3D Globe...

Upcoming Passes

Altitude History

Altitude vs Time

uPlot chart will show altitude changes over time

Two-Line Element Set

1 55305U 23010AN 25303.30150060 -.00000008 00000-0 71329-5 0 9998
2 55305 69.9997 353.4000 0003042 271.0813 88.9998 14.98328155153742
Epoch: Oct 30, 2025 • Age: 14 hours

Current Status

Altitude 589.4 km
Velocity 7.57 km/s
Sub-Earth Point -50.63°S, 157.81°W
Launch Date Jan 19, 2023
Age 2.7 years
Type internet

Technical Details

Classification Payload
Mass 305.00 kg
Dry Mass 290.00 kg
Total Mass 305.00 kg
Length 0.20 m
Diameter 2.80 m
Span 9.00 m
Shape Box + pan
Manufacturer SPXS
Bus Type Starlink
Phase Status In Orbit
Owner/State SPXS/US

Large Constellations

Loading constellations...